Location: Dilsberg
(49.3983°N, 8.8354°E)
Time: 20:03:50
(UTC+00:00)

ASTEX 1 - Pass Details

Date: 19 May 2025
Orbit: 715 x 734 km, 92.7° (Epoch: 20 June)

Event Time Altitude Azimuth Distance (km) Brightness Sun altitude
Rises 23:17:31 0° 6° (N) 3,163 8.2 -20.6°
Reaches altitude 10° 23:19:49 10° 8° (N) 2,239 7.1 -20.6°
Maximum altitude 23:24:47 78° 95° (E) 754 3.4 -20.6°
Enters shadow 23:26:15 46° 172° (S) 978 3.6 -20.6°
